Location: *
(55.5817°S, 142.4781°W)
Time: 06:16:53
(UTC+00:00)

ACS3 Solar Sail - Pass Details

Date: 29 April 2025
Orbit: 933 x 1009 km, 97.5° (Epoch: 23 May)

Event Time Altitude Azimuth Distance (km) Brightness Sun altitude
Rises 13:44:37 0° 34° (NE) 3,635 5.1 -26.5°
Reaches altitude 10° 13:47:04 10° 38° (NE) 2,707 4.4 -26.1°
Maximum altitude 13:52:59 55° 114° (ESE) 1,174 2.5 -25.3°
Drops below altitude 10° 13:59:05 10° 189° (S) 2,787 4.2 -24.5°
Sets 14:01:38 0° 193° (SSW) 3,752 4.8 -24.1°
